When you browse on this site, cookies collect data to enhance your experience and personalize the content and advertising you see.
Visit our Privacy Policy to learn more. By continuing to use the site, you agree to this use of cookies and data.
  • In United Kingdom
  • List of Countries
  • For 7 days
  • Water Temperature
  • Satellite Maps
  • Weather Map
  • Weather Widgets
  • user-avatar
    Login

    Hourly Weather Amircan

    Today, 23 March, Saturday

    Time Temperature Precipitation Wind Pressure Humidity
    00:00 +7°C° 0 mm 6 mps 763 mmHg 88%
    01:00 +7°C° 0 mm 5 mps 763 mmHg 88%
    02:00 +6°C° 0 mm 4 mps 763 mmHg 88%
    03:00 +7°C° 0 mm 3 mps 763 mmHg 88%
    04:00 +7°C° 0 mm 2 mps 763 mmHg 88%
    05:00 +7°C° 0 mm 2 mps 762 mmHg 88%
    06:00 +8°C° 0 mm 1 mps 762 mmHg 88%
    07:00 +8°C° 0 mm 3 mps 762 mmHg 83%
    08:00 +8°C° 0 mm 4 mps 762 mmHg 78%
    09:00 +9°C° 0 mm 6 mps 761 mmHg 73%
    10:00 +10°C° 0 mm 7 mps 761 mmHg 71%
    11:00 +10°C° 0 mm 7 mps 760 mmHg 68%
    12:00 +11°C° 0 mm 8 mps 760 mmHg 66%
    13:00 +11°C° 0 mm 8 mps 759 mmHg 65%
    14:00 +12°C° 0 mm 9 mps 758 mmHg 64%
    15:00 +12°C° 0 mm 9 mps 758 mmHg 64%
    16:00 +11°C° 0 mm 9 mps 757 mmHg 66%
    17:00 +11°C° 0 mm 9 mps 757 mmHg 68%
    18:00 +9°C° 0 mm 10 mps 757 mmHg 71%
    19:00 +10°C° 0 mm 9 mps 757 mmHg 72%
    20:00 +10°C° 0 mm 9 mps 757 mmHg 74%
    21:00 +10°C° 0 mm 9 mps 757 mmHg 75%
    22:00 +10°C° 0 mm 8 mps 757 mmHg 76%
    23:00 +9°C° 0 mm 8 mps 757 mmHg 76%

    Tomorrow, 24 March, Sunday

    Time Temperature Precipitation Wind Pressure Humidity
    00:00 +9°C° 0 mm 7 mps 756 mmHg 76%
    01:00 +9°C° 0 mm 7 mps 756 mmHg 76%
    02:00 +9°C° 0 mm 6 mps 756 mmHg 76%
    03:00 +9°C° 0 mm 6 mps 756 mmHg 76%
    04:00 +9°C° 0 mm 5 mps 756 mmHg 75%
    05:00 +9°C° 0 mm 5 mps 756 mmHg 73%
    06:00 +10°C° 0 mm 4 mps 756 mmHg 72%
    07:00 +8°C° 0 mm 5 mps 756 mmHg 75%
    08:00 +8°C° 0 mm 7 mps 756 mmHg 78%
    09:00 +7°C° 0 mm 8 mps 757 mmHg 81%
    10:00 +7°C° 0 mm 9 mps 757 mmHg 79%
    11:00 +8°C° 0 mm 10 mps 757 mmHg 77%
    12:00 +8°C° 0 mm 11 mps 757 mmHg 74%
    13:00 +8°C° 0 mm 11 mps 756 mmHg 74%
    14:00 +8°C° 0 mm 11 mps 756 mmHg 73%
    15:00 +8°C° 0 mm 12 mps 756 mmHg 73%
    16:00 +7°C° 0 mm 12 mps 756 mmHg 75%
    17:00 +7°C° 0 mm 12 mps 756 mmHg 77%
    18:00 +5°C° 0 mm 13 mps 756 mmHg 78%
    19:00 +5°C° 0.1 mm 13 mps 757 mmHg 78%
    20:00 +5°C° 0.1 mm 14 mps 757 mmHg 78%
    21:00 +5°C° 0.1 mm 14 mps 757 mmHg 78%
    22:00 +5°C° 0.1 mm 14 mps 757 mmHg 77%
    23:00 +5°C° 0.1 mm 14 mps 757 mmHg 77%

    Day after tomorrow, 25 March, Monday

    Time Temperature Precipitation Wind Pressure Humidity
    00:00 +5°C° 0.1 mm 15 mps 757 mmHg 76%
    01:00 +4°C° 0.1 mm 15 mps 757 mmHg 77%
    02:00 +4°C° 0.1 mm 15 mps 757 mmHg 77%
    03:00 +4°C° 0.1 mm 15 mps 758 mmHg 77%
    04:00 +4°C° 0 mm 15 mps 758 mmHg 76%
    05:00 +4°C° 0 mm 16 mps 758 mmHg 75%
    06:00 +4°C° 0 mm 16 mps 758 mmHg 74%
    07:00 +4°C° 0 mm 16 mps 758 mmHg 72%
    08:00 +4°C° 0 mm 16 mps 759 mmHg 70%
    09:00 +5°C° 0 mm 16 mps 759 mmHg 67%
    10:00 +5°C° 0 mm 15 mps 759 mmHg 66%
    11:00 +5°C° 0 mm 15 mps 759 mmHg 65%
    12:00 +6°C° 0 mm 15 mps 759 mmHg 64%
    13:00 +5°C° 0 mm 14 mps 759 mmHg 64%
    14:00 +5°C° 0 mm 14 mps 758 mmHg 65%
    15:00 +5°C° 0 mm 14 mps 758 mmHg 65%
    16:00 +5°C° 0.2 mm 13 mps 758 mmHg 66%
    17:00 +5°C° 0.2 mm 13 mps 758 mmHg 67%
    18:00 +4°C° 0.2 mm 12 mps 758 mmHg 68%
    19:00 +4°C° 0.3 mm 12 mps 759 mmHg 68%
    20:00 +4°C° 0.3 mm 12 mps 759 mmHg 68%
    21:00 +4°C° 0.3 mm 12 mps 759 mmHg 69%
    22:00 +4°C° 0 mm 12 mps 759 mmHg 68%
    23:00 +4°C° 0 mm 11 mps 759 mmHg 67%

    26 March, Tuesday

    Time Temperature Precipitation Wind Pressure Humidity
    00:00 +4°C° 0 mm 11 mps 759 mmHg 66%
    01:00 +4°C° 0 mm 11 mps 759 mmHg 65%
    02:00 +5°C° 0 mm 10 mps 759 mmHg 64%
    03:00 +5°C° 0 mm 10 mps 759 mmHg 63%
    04:00 +5°C° 0 mm 10 mps 759 mmHg 63%
    05:00 +5°C° 0 mm 9 mps 760 mmHg 63%
    06:00 +5°C° 0 mm 9 mps 760 mmHg 64%
    07:00 +6°C° 0 mm 9 mps 760 mmHg 62%
    08:00 +6°C° 0 mm 9 mps 760 mmHg 61%
    09:00 +6°C° 0 mm 9 mps 761 mmHg 60%
    10:00 +7°C° 0 mm 9 mps 760 mmHg 59%
    11:00 +7°C° 0 mm 9 mps 760 mmHg 58%
    12:00 +7°C° 0 mm 9 mps 760 mmHg 57%
    13:00 +7°C° 0 mm 8 mps 760 mmHg 56%
    14:00 +7°C° 0 mm 8 mps 759 mmHg 55%
    15:00 +7°C° 0 mm 8 mps 759 mmHg 55%
    16:00 +7°C° 0 mm 8 mps 759 mmHg 56%
    17:00 +6°C° 0 mm 7 mps 759 mmHg 58%
    18:00 +6°C° 0 mm 7 mps 760 mmHg 59%
    19:00 +6°C° 0 mm 7 mps 760 mmHg 61%
    20:00 +6°C° 0 mm 7 mps 760 mmHg 62%
    21:00 +6°C° 0 mm 7 mps 760 mmHg 63%
    22:00 +5°C° 0 mm 7 mps 760 mmHg 63%
    23:00 +5°C° 0 mm 7 mps 759 mmHg 64%

    27 March, Wednesday

    Time Temperature Precipitation Wind Pressure Humidity
    00:00 +5°C° 0 mm 7 mps 759 mmHg 64%
    01:00 +5°C° 0 mm 6 mps 759 mmHg 64%
    02:00 +5°C° 0 mm 6 mps 759 mmHg 64%
    03:00 +6°C° 0 mm 5 mps 759 mmHg 64%
    04:00 +6°C° 0.1 mm 5 mps 759 mmHg 66%
    05:00 +6°C° 0.1 mm 4 mps 759 mmHg 67%
    06:00 +6°C° 0.1 mm 4 mps 759 mmHg 69%
    07:00 +7°C° 0 mm 3 mps 759 mmHg 67%
    08:00 +8°C° 0 mm 3 mps 760 mmHg 64%
    09:00 +8°C° 0 mm 3 mps 760 mmHg 62%
    10:00 +9°C° 0 mm 2 mps 760 mmHg 59%
    11:00 +9°C° 0 mm 2 mps 760 mmHg 57%
    12:00 +11°C° 0 mm 1 mps 760 mmHg 54%
    13:00 +10°C° 0 mm 2 mps 760 mmHg 52%
    14:00 +10°C° 0 mm 2 mps 759 mmHg 51%
    15:00 +12°C° 0 mm 2 mps 759 mmHg 49%
    16:00 +10°C° 0 mm 2 mps 760 mmHg 51%
    17:00 +10°C° 0 mm 2 mps 760 mmHg 52%
    18:00 +10°C° 0 mm 2 mps 760 mmHg 54%
    19:00 +10°C° 0 mm 2 mps 760 mmHg 56%
    20:00 +9°C° 0 mm 2 mps 761 mmHg 58%
    21:00 +10°C° 0 mm 1 mps 761 mmHg 60%
    22:00 +9°C° 0 mm 2 mps 761 mmHg 63%
    23:00 +9°C° 0 mm 2 mps 761 mmHg 65%

    28 March, Thursday

    Time Temperature Precipitation Wind Pressure Humidity
    00:00 +9°C° 0 mm 2 mps 760 mmHg 68%
    01:00 +9°C° 0 mm 2 mps 760 mmHg 70%
    02:00 +9°C° 0 mm 2 mps 760 mmHg 72%
    03:00 +9°C° 0 mm 2 mps 760 mmHg 75%
    04:00 +9°C° 0 mm 2 mps 761 mmHg 75%
    05:00 +9°C° 0 mm 2 mps 761 mmHg 76%
    06:00 +8°C° 0 mm 2 mps 761 mmHg 77%
    07:00 +9°C° 0 mm 2 mps 761 mmHg 72%
    08:00 +10°C° 0 mm 2 mps 762 mmHg 68%
    09:00 +12°C° 0 mm 2 mps 762 mmHg 64%
    10:00 +13°C° 0 mm 2 mps 762 mmHg 60%
    11:00 +13°C° 0 mm 2 mps 762 mmHg 57%
    12:00 +13°C° 0 mm 3 mps 762 mmHg 54%
    13:00 +13°C° 0 mm 3 mps 761 mmHg 53%
    14:00 +13°C° 0 mm 3 mps 761 mmHg 52%
    15:00 +14°C° 0 mm 4 mps 761 mmHg 51%
    16:00 +13°C° 0 mm 4 mps 761 mmHg 52%
    17:00 +12°C° 0 mm 4 mps 761 mmHg 54%
    18:00 +12°C° 0 mm 4 mps 761 mmHg 56%
    19:00 +11°C° 0 mm 3 mps 762 mmHg 58%
    20:00 +11°C° 0 mm 3 mps 762 mmHg 60%
    21:00 +12°C° 0 mm 2 mps 762 mmHg 61%
    22:00 +10°C° 0 mm 3 mps 762 mmHg 62%
    23:00 +10°C° 0 mm 3 mps 762 mmHg 63%
    Show more